TimeEST,TemperatureF,Dew PointF,Humidity,Sea Level PressureIn,VisibilityMPH,Wind Direction,Wind SpeedMPH,Gust SpeedMPH,PrecipitationIn,Events,Conditions,WindDirDegrees,DateUTC
12:13 AM,44.6,42.8,93,29.84,10.0,SSW,8.1,-,N/A,,Overcast,210,2011-11-29 05:13:00
12:40 AM,42.8,42.8,100,29.82,10.0,SW,8.1,-,N/A,,Overcast,220,2011-11-29 05:40:00
12:51 AM,44.6,42.8,93,29.82,10.0,SSW,8.1,-,N/A,,Overcast,210,2011-11-29 05:51:00
12:53 AM,44.1,42.1,93,29.82,10.0,SSW,9.2,-,N/A,,Overcast,210,2011-11-29 05:53:00
1:06 AM,44.6,42.8,93,29.82,10.0,SW,5.8,-,N/A,,Overcast,220,2011-11-29 06:06:00
1:46 AM,42.8,39.2,87,29.80,10.0,WSW,8.1,-,N/A,,Overcast,240,2011-11-29 06:46:00
1:53 AM,43.0,39.9,89,29.79,10.0,WSW,10.4,-,N/A,,Overcast,240,2011-11-29 06:53:00
2:53 AM,41.0,39.0,93,29.81,10.0,SSW,6.9,-,N/A,,Overcast,210,2011-11-29 07:53:00
3:09 AM,41.0,39.2,93,29.82,10.0,SSW,5.8,-,N/A,,Overcast,210,2011-11-29 08:09:00
3:53 AM,39.9,37.9,93,29.82,10.0,SW,8.1,-,N/A,,Overcast,220,2011-11-29 08:53:00
4:30 AM,39.2,37.4,93,29.83,10.0,SW,9.2,-,N/A,,Overcast,220,2011-11-29 09:30:00
4:53 AM,39.9,37.9,93,29.83,10.0,SW,8.1,-,N/A,,Overcast,220,2011-11-29 09:53:00
5:04 AM,39.2,37.4,93,29.83,10.0,SW,6.9,-,N/A,,Overcast,220,2011-11-29 10:04:00
5:16 AM,39.2,37.4,93,29.83,10.0,SSW,5.8,-,N/A,,Overcast,210,2011-11-29 10:16:00
5:23 AM,39.2,37.4,93,29.83,10.0,SSW,5.8,-,N/A,,Overcast,200,2011-11-29 10:23:00
5:53 AM,39.0,37.0,93,29.83,10.0,SW,5.8,-,N/A,,Overcast,220,2011-11-29 10:53:00
6:53 AM,39.0,37.9,96,29.83,10.0,SSW,5.8,-,N/A,,Overcast,200,2011-11-29 11:53:00
7:19 AM,37.4,37.4,100,29.84,10.0,SSW,6.9,-,N/A,,Overcast,200,2011-11-29 12:19:00
7:36 AM,37.4,37.4,100,29.85,8.0,SSW,6.9,-,N/A,,Overcast,200,2011-11-29 12:36:00
7:53 AM,37.9,36.0,93,29.88,10.0,South,9.2,-,N/A,,Overcast,190,2011-11-29 12:53:00
8:08 AM,37.4,35.6,93,29.86,10.0,South,6.9,-,N/A,,Overcast,180,2011-11-29 13:08:00
8:32 AM,37.4,35.6,93,29.86,10.0,SSW,9.2,-,N/A,,Scattered Clouds,210,2011-11-29 13:32:00
8:53 AM,39.0,36.0,89,29.86,10.0,SW,9.2,-,N/A,,Partly Cloudy,230,2011-11-29 13:53:00
9:53 AM,39.9,35.1,83,29.85,10.0,SW,9.2,-,N/A,,Partly Cloudy,220,2011-11-29 14:53:00
10:24 AM,41.0,33.8,76,29.84,10.0,SSW,10.4,-,N/A,,Mostly Cloudy,210,2011-11-29 15:24:00
10:53 AM,41.0,32.0,70,29.84,10.0,WSW,9.2,-,N/A,,Overcast,240,2011-11-29 15:53:00
11:04 AM,41.0,32.0,70,29.83,10.0,WSW,10.4,-,0.00,Rain,Light Rain,250,2011-11-29 16:04:00
11:53 AM,41.0,33.1,73,29.83,10.0,SW,11.5,-,0.00,,Overcast,230,2011-11-29 16:53:00
12:53 PM,39.9,35.1,83,29.82,10.0,SSW,8.1,-,0.01,Rain,Light Rain,200,2011-11-29 17:53:00
1:26 PM,39.2,35.6,87,29.80,10.0,SSW,11.5,18.4,0.01,Rain,Light Rain,210,2011-11-29 18:26:00
1:48 PM,37.4,35.6,93,29.81,10.0,SW,11.5,19.6,0.01,Rain,Light Rain,230,2011-11-29 18:48:00
1:53 PM,37.9,35.1,89,29.82,10.0,WSW,12.7,-,0.01,Rain,Light Rain,240,2011-11-29 18:53:00
2:19 PM,39.2,35.6,87,29.81,10.0,SW,12.7,-,0.00,Rain,Light Rain,220,2011-11-29 19:19:00
2:53 PM,39.9,36.0,86,29.83,10.0,SW,9.2,-,0.00,,Overcast,230,2011-11-29 19:53:00
3:53 PM,39.9,36.0,86,29.84,10.0,SSW,8.1,-,0.00,,Overcast,210,2011-11-29 20:53:00
4:29 PM,37.4,35.6,93,29.83,10.0,WSW,8.1,-,0.01,,Overcast,240,2011-11-29 21:29:00
4:51 PM,39.2,37.4,93,29.84,10.0,SSW,8.1,-,0.01,,Overcast,210,2011-11-29 21:51:00
4:53 PM,37.9,37.0,97,29.86,10.0,SSW,9.2,-,0.01,,Overcast,210,2011-11-29 21:53:00
5:46 PM,37.4,35.6,93,29.85,10.0,SW,10.4,-,N/A,,Mostly Cloudy,230,2011-11-29 22:46:00
5:53 PM,37.9,35.1,89,29.87,10.0,SW,9.2,-,N/A,,Scattered Clouds,220,2011-11-29 22:53:00
6:53 PM,37.9,35.1,89,29.89,10.0,SW,10.4,-,N/A,,Overcast,230,2011-11-29 23:53:00
7:53 PM,37.0,34.0,89,29.90,10.0,SW,5.8,-,N/A,,Clear,220,2011-11-30 00:53:00
8:53 PM,36.0,33.1,89,29.91,10.0,SW,5.8,-,N/A,,Scattered Clouds,230,2011-11-30 01:53:00
9:01 PM,37.4,33.8,87,29.89,10.0,WSW,5.8,-,N/A,,Mostly Cloudy,240,2011-11-30 02:01:00
9:33 PM,35.6,33.8,93,29.88,10.0,SW,5.8,-,N/A,,Scattered Clouds,220,2011-11-30 02:33:00
9:43 PM,35.6,33.8,93,29.89,10.0,SSW,4.6,-,N/A,,Mostly Cloudy,210,2011-11-30 02:43:00
9:53 PM,36.0,33.1,89,29.90,10.0,WSW,8.1,-,N/A,,Scattered Clouds,240,2011-11-30 02:53:00
10:53 PM,36.0,33.1,89,29.89,10.0,WSW,10.4,-,N/A,,Clear,250,2011-11-30 03:53:00
11:53 PM,36.0,33.1,89,29.89,10.0,WSW,10.4,-,N/A,,Clear,250,2011-11-30 04:53:00